sat.trackr.live / text

‹ back to catalog

STARLINK-2717

NORAD 48659 · 2021-044X

PAYLOAD ACTIVE UNKNOWN

§ Identity

Operator
Country
US
Launch date
2021-05-26
Launch site
AFETR
Launch vehicle
Mass (kg)
RCS (m²)

Purposes: comms

External: N2YO · Heavens-Above · Gunter

§ Orbital elements

Epoch: 2026-09-18T09:10:48.137376Z

Period
94.01 min
Inclination
53.1595°
Eccentricity
0.0001200
Mean motion
15.31701996 rev/d
Perigee alt
469.9 km
Apogee alt
471.6 km
Semi-major
6,848.9 km
B*
1.7826e-5
RAAN
297.1025°
Arg perigee
87.8373°
Mean anomaly
272.2765°
Rev number
29,335

§ Raw data

STARLINK-27171 48659U 21044X   26261.38250159  .00000188  00000+0  17826-4 0  99972 48659  53.1595 297.1025 0001200  87.8373 272.2765 15.31701996293352

JSON: /api/v1/satellites/48659 · /tle

For live sub-satellite position, see the globe view (requires WebGL).

§ Visibility from observer

Set your observer location to see the next 7 days of passes ≥ 10°. The values pass through the URL so the page stays shareable.

No JS? Fill the form by hand. The geolocation button needs JavaScript.